Location: *
(49.7115°N, 15.0136°E)
Time: 23:18:44
(UTC+00:00)

Ariane Rocket - Pass Details

Date: 27 February 2020
Orbit: 759 x 771 km, 98.7° (Epoch: 05 April)

Event Time Altitude Azimuth Distance (km) Brightness Sun altitude
Rises 17:46:29 0° 152° (SSE) 3,233 6.0 -11.8°
Reaches altitude 10° 17:48:48 10° 149° (SSE) 2,311 5.2 -12.2°
Maximum altitude 17:53:49 62° 70° (ENE) 871 3.0 -13.0°
Drops below altitude 10° 17:58:52 10° 351° (N) 2,326 5.7 -13.8°
Sets 18:01:12 0° 348° (NNW) 3,256 6.5 -14.2°
